STARLINK-32469, 61721

Orbit data source: Space-Track

STARLINK-32469, 61721 is a payload satellite owned by SpaceX/Seattle (US) in LEO that was launched on Wed, 30 Oct 2024 UTC via an FALCON 9 launch vehicle from the Air Force Eastern Test Range (AFETR). Payload-class satellites include a variety of spacecraft equipped with specific instruments for various scientific and technological missions. These include communications satellites like Starlink; space stations such as the ISS; scientific satellites like the Hubble; Earth observation satellites from companies like Planet Labs, Umbra, and HawkEye 360; GPS; miniature CubeSats for education and research; and military/defense satellites.

Loading next visibility...
Identifier
61721, 2024-196Q
Orbit
LEO
Country
Flag of USUS
Related business
Manufacturer
SpaceX/Seattle
Mission
Operational Commercial Communications
Bus & Motor
STARLINK V2M, Unknown motor
Mass
730 kg wet, ~700 kg dry
Launch date (UTC)
2024-10-30 (1 year ago)
Launch vehicle
FALCON 9
Launch site
Air Force Eastern Test Range (AFETR)
Object type
Payload
Rocket body
Debris
Shape & HBR
Box + 2 Pan, 17.7 m
Radar Cross Section
33.884 m², Large (>1 m²)

Expand to show TLE details & history
Last TLE update: 2 days ago

TLE from 2 days ago
0 STARLINK-32469
1 61721U 24196Q   26033.05417297  .00001526  00000-0  63669-4 0  9996
2 61721  53.1594 266.6445 0001319  94.9218 265.1933 15.30190683 71706
Epoch: 2026-02-02T01:18Z
TLE epoch observation values (Epoch: 2026-02-02T01:18:00.544Z)
Latitude
-0.00006°
Longitude
114.88722°
Altitude
476.218 km
Speed
7.629 km/s
True Right ascension
17h 46m 34s
True Declination
0° 00' 00"
Sunlit
Object was in daylight at epoch
Visualization orbit readout
Latitude
Unknown
Longitude
Unknown
Altitude
Unknown
Speed
Unknown
Apparent Right ascension
Unknown
Apparent Declination
Unknown
Sunlit
N/A
Visualization observer readout
Local Sidereal Time
02:41:01
Azimuth
Unknown
Elevation
Unknown
Doppler factor
Unknown
Orbital elements
Apogee altitude
476.403 km
Perigee altitude
474.595 km
Semi-major axis
6,853.636 km
Eccentricity
0.00013
Inclination
53.1594°
RAAN
266.6445°
Arg. of periapsis
94.9218°
True anomaly
265.17824°
Mean anomaly
265.1933°
Eccentric anomaly
265.18577°
Mean motion
3.82527 °/min
Orbital period
94.11 mins
BSTAR
0.000063669
Loading maneuver chart data...
Computing Atmospheric mass density...
Loading historical data...
Loading historical data...
Loading historical data...
Loading historical data...
Loading historical data...
Loading historical data...
Loading historical data...

Documentation

Showing up to 5 results
|